EW2984 Weather Reports


Display with metric or nautical units.
time (UTC)temp
F
wind
direction
speed
MPH
gust
MPH
rain 1hr
in
rain 24hr
in
rain mn
in
humidity
%
barometer
mb
20260901013045 75 133 0.0 0.0 0.00 0.00 0.00 89 1017.9
20260901011544 75 134 0.0 1.0 0.00 0.00 0.00 89 1017.8
20260901010043 75 122 0.0 1.0 0.00 0.00 0.00 89 1017.5
20260901004544 75 149 0.0 1.0 0.00 0.00 0.00 89 1017.7
20260901003042 75 262 0.0 0.0 0.00 0.00 0.00 89 1017.6
20260901001544 76 262 0.0 0.0 0.00 0.00 0.00 88 1017.5
20260901000045 77 262 0.0 0.0 0.00 0.00 0.00 86 1017.4
20260831234540 77 262 0.0 0.0 0.00 0.00 0.00 85 1017.3
20260831233039 78 262 0.0 1.0 0.00 0.00 0.00 83 1017.5
20260831231539 79 127 0.0 0.0 0.00 0.00 0.00 81 1017.5
20260831230044 79 222 0.0 2.0 0.00 0.00 0.00 81 1017.5
20260831224538 80 225 0.0 3.0 0.00 0.00 0.00 80 1017.6
20260831223034 80 217 0.0 2.0 0.00 0.00 0.00 79 1017.8
20260831221536 80 218 0.0 2.0 0.00 0.00 0.00 80 1017.8
20260831220033 80 203 0.0 1.0 0.00 0.00 0.00 79 1018.0
20260831214552 81 262 0.0 1.0 0.00 0.00 0.00 78 1018.0
20260831213028 82 213 0.0 1.0 0.00 0.00 0.00 76 1018.1
20260831211528 81 147 0.0 1.0 0.00 0.00 0.00 77 1018.2
20260831210029 80 145 0.0 1.0 0.00 0.00 0.00 77 1018.4
20260831204526 80 141 0.0 0.0 0.00 0.00 0.00 78 1018.4
20260831203025 81 229 0.0 0.0 0.00 0.00 0.00 77 1018.5
20260831201530 81 229 0.0 2.0 0.00 0.00 0.00 75 1018.6
20260831200036 81 114 0.0 1.0 0.00 0.00 0.00 75 1018.5
20260831194520 81 106 0.0 2.0 0.00 0.00 0.00 74 1018.6
20260831193020 81 226 0.0 1.0 0.00 0.00 0.00 75 1018.9
20260831191523 82 150 0.0 1.0 0.00 0.00 0.00 73 1019.1
20260831190019 81 118 0.0 1.0 0.00 0.00 0.00 74 1019.1
20260831184520 81 225 0.0 2.0 0.00 0.00 0.00 75 1019.2
20260831183014 80 211 0.0 1.0 0.00 0.00 0.00 75 1019.2
20260831181514 81 231 0.0 1.0 0.00 0.00 0.00 75 1019.3
20260831180013 81 217 0.0 2.0 0.00 0.00 0.00 73 1019.3
20260831174512 81 233 0.0 1.0 0.00 0.00 0.00 74 1019.4
20260831173012 80 87 0.0 4.0 0.00 0.00 0.00 72 1019.5
20260831171510 80 130 0.0 1.0 0.00 0.00 0.00 72 1019.6
20260831170010 80 274 0.0 3.0 0.00 0.00 0.00 71 1019.8
20260831164507 79 165 0.0 3.0 0.00 0.00 0.00 74 1019.7
20260831163014 79 127 0.0 3.0 0.00 0.00 0.00 74 1019.8
20260831161506 79 53 0.0 3.0 0.00 0.00 0.00 78 1019.8
20260831160105 78 139 0.0 3.0 0.00 0.00 0.00 76 1020.0
20260831154617 78 210 0.0 4.0 0.00 0.00 0.00 76 1020.1
20260831153056 77 96 0.0 1.0 0.00 0.00 0.00 79 1019.9
20260831151553 76 126 0.0 2.0 0.00 0.00 0.00 81 1020.0
20260831150050 75 115 0.0 1.0 0.00 0.00 0.00 82 1020.2
20260831144552 75 140 0.0 1.0 0.00 0.00 0.00 83 1020.3
20260831143056 75 125 0.0 1.0 0.00 0.00 0.00 85 1020.4
20260831141547 75 138 0.0 2.0 0.00 0.00 0.00 84 1020.3
20260831140043 74 140 0.0 0.0 0.00 0.00 0.00 88 1020.5
20260831134539 74 139 0.0 1.0 0.00 0.00 0.00 89 1020.4
20260831133040 73 133 0.0 2.0 0.00 0.00 0.00 90 1020.3
20260831131543 72 143 0.0 0.0 0.00 0.00 0.00 91 1020.4
20260831130037 72 143 0.0 2.0 0.00 0.00 0.00 91 1020.3
20260831124543 72 131 0.0 1.0 0.00 0.00 0.00 92 1020.1
20260831123032 71 123 0.0 0.0 0.00 0.00 0.00 93 1020.1
20260831121532 71 123 0.0 0.0 0.00 0.00 0.00 93 1020.1
20260831120048 71 123 0.0 0.0 0.00 0.00 0.00 94 1020.1
20260831114528 71 123 0.0 0.0 0.00 0.00 0.00 94 1020.0
20260831113026 70 123 0.0 0.0 0.00 0.00 0.00 93 1019.8
20260831111524 70 123 0.0 0.0 0.00 0.00 0.00 93 1019.8
20260831110023 70 123 0.0 0.0 0.00 0.00 0.00 93 1019.6
20260831104521 70 123 0.0 0.0 0.00 0.00 0.00 93 1019.4
20260831103021 70 123 0.0 0.0 0.00 0.00 0.00 95 1019.1
20260831101518 70 123 0.0 0.0 0.00 0.00 0.00 95 1019.1
20260831100017 70 123 0.0 0.0 0.00 0.00 0.00 94 1019.1
20260831094516 70 123 0.0 0.0 0.00 0.00 0.00 95 1018.9
20260831093016 70 123 0.0 0.0 0.00 0.00 0.00 96 1018.8
20260831091514 70 123 0.0 0.0 0.00 0.00 0.00 96 1018.7
20260831090013 70 123 0.0 0.0 0.00 0.00 0.00 95 1018.6
20260831084512 71 123 0.0 0.0 0.00 0.00 0.00 95 1018.6
20260831083011 71 123 0.0 0.0 0.00 0.00 0.00 95 1018.6
20260831081515 71 123 0.0 0.0 0.00 0.00 0.00 95 1018.5
20260831080023 71 123 0.0 0.0 0.00 0.00 0.00 93 1018.5
20260831074507 71 123 0.0 0.0 0.00 0.00 0.00 92 1018.4
20260831073009 72 123 0.0 1.0 0.00 0.00 0.00 93 1018.3
20260831071504 72 123 0.0 1.0 0.00 0.00 0.00 95 1018.5
20260831070005 72 125 0.0 0.0 0.00 0.00 0.00 97 1018.6
20260831064504 72 125 0.0 0.0 0.00 0.00 0.00 97 1018.7
20260831063100 72 125 0.0 0.0 0.00 0.00 0.00 97 1018.9
20260831061605 72 125 0.0 0.0 0.00 0.00 0.00 97 1019.0
20260831060058 72 125 0.0 0.0 0.00 0.00 0.00 96 1019.0
20260831054558 72 125 0.0 0.0 0.00 0.00 0.00 95 1019.0
20260831053057 73 125 0.0 0.0 0.00 0.00 0.00 95 1019.1
20260831051600 73 125 0.0 0.0 0.00 0.00 0.00 95 1018.9
20260831050048 73 125 0.0 0.0 0.00 0.00 0.00 95 1018.9
20260831044544 73 125 0.0 0.0 0.00 0.00 0.00 95 1019.0
20260831043040 72 186 0.0 0.0 0.00 0.00 0.00 96 1018.9
20260831041538 72 210 0.0 0.0 0.00 0.00 0.00 95 1019.0
20260831040037 72 210 0.0 0.0 0.00 0.00 0.00 95 1019.2
20260831034542 73 210 0.0 0.0 0.00 0.00 0.00 95 1019.2
20260831033035 73 210 0.0 0.0 0.00 0.00 0.00 94 1019.3
20260831031535 73 210 0.0 0.0 0.00 0.00 0.00 94 1019.5
20260831030033 73 210 0.0 0.0 0.00 0.00 0.00 93 1019.4
20260831024535 74 210 0.0 1.0 0.00 0.00 0.00 91 1019.4
20260831023034 75 210 0.0 0.0 0.00 0.00 0.00 88 1019.4
20260831021532 75 210 0.0 0.0 0.00 0.00 0.00 85 1019.4
20260831020031 75 210 0.0 0.0 0.00 0.00 0.00 84 1019.4
20260831014532 76 210 0.0 0.0 0.00 0.00 0.00 84 1019.3